Bostic, NC

12:27 AM EST on January 23, 2017 (GMT -0500)
Rutherford County-Marchman

Weather History for KFQD - August, 2014

Change the Weather History Date:

Wednesday, August 20, 2014

  Actual Average (KAVL) Record (KAVL)
Temperature  
Mean Temperature 76 °F -  
Max Temperature 86 °F 83 °F 97 °F (1983)
Min Temperature 66 °F 62 °F 52 °F (1879)
Cooling Degree Days 11    
Growing Degree Days 26 (Base 50)    
Moisture  
Dew Point 69 °F    
Average Humidity 83    
Maximum Humidity 98    
Minimum Humidity 54    
Precipitation  
Precipitation 0.11 in - - ()
Sea Level Pressure  
Sea Level Pressure 30.02 in    
Wind  
Wind Speed 2 mph (NW)    
Max Wind Speed 13 mph    
Max Gust Speed 20 mph    
Visibility 10 miles    
Events Rain , Thunderstorm    
Averages and records for this station are not official NWS values.
T = Trace of Precipitation, MM = Missing Value Source: NWS Daily Summary

Daily Weather History Graph

Daily Weather History Graph

Search for Another Location

Airport or City:

Trip Planner

Search our weather history database for the weather conditions in past years. The results will help you decide how hot, cold, wet, or windy it might be!

Date:

Astronomy

Aug. 20, 2014 Rise Set
Actual Time 6:50 AM EDT 8:10 PM EDT
Civil Twilight 6:24 AM EDT 8:37 PM EDT
Nautical Twilight 5:52 AM EDT 9:09 PM EDT
Astronomical Twilight 5:19 AM EDT 9:42 PM EDT
Moon 2:33 AM EDT (8/20) 4:51 PM EDT (8/20)
Length of Visible Light 14h 12m
Length of Day
13h 19m
Waning Crescent, 21% of the Moon is Illuminated
Aug 20
Waning Crescent
Aug 25
New
Sep 2
First Quarter
Sep 8
Full
Sep 15
Last Quarter

Hourly Weather History & Observations

Time (EDT) Temp. Heat Index Dew Point Humidity Pressure Visibility Wind Dir Wind Speed Gust Speed Precip Events Conditions
12:15 AM 71.2 °F - 70.5 °F 98% 29.94 in 7.0 mi NW 3.5 mph - N/A   Clear
12:35 AM 71.4 °F - 70.5 °F 97% 29.94 in 7.0 mi NNW 4.6 mph - N/A   Clear
12:55 AM 72.3 °F - 70.7 °F 95% 29.94 in 10.0 mi Calm Calm - N/A   Clear
1:35 AM 71.4 °F - 70.3 °F 96% 29.95 in 10.0 mi NNW 3.5 mph - N/A   Clear
1:55 AM 70.7 °F - 69.8 °F 97% 29.95 in 10.0 mi NW 3.5 mph - N/A   Clear
2:15 AM 70.7 °F - 69.6 °F 96% 29.96 in 10.0 mi Calm Calm - N/A   Clear
2:35 AM 70.7 °F - 69.6 °F 96% 29.96 in 10.0 mi Calm Calm - N/A   Clear
2:55 AM 70.9 °F - 69.3 °F 95% 29.96 in 10.0 mi NW 3.5 mph - N/A   Clear
3:15 AM 70.7 °F - 69.4 °F 96% 29.95 in 10.0 mi North 3.5 mph - N/A   Clear
3:35 AM 70.9 °F - 69.3 °F 95% 29.95 in 10.0 mi Calm Calm - N/A   Clear
3:55 AM 69.8 °F - 68.9 °F 97% 29.96 in 7.0 mi Calm Calm - N/A   Clear
4:15 AM 69.3 °F - 68.7 °F 98% 29.95 in 7.0 mi Calm Calm - N/A   Clear
4:35 AM 70.2 °F - 68.9 °F 96% 29.95 in 10.0 mi Calm Calm - N/A   Clear
4:55 AM 68.7 °F - 68.2 °F 98% 29.96 in 7.0 mi NNW 4.6 mph - N/A   Clear
5:15 AM 70.0 °F - 68.0 °F 93% 29.96 in 10.0 mi NE 4.6 mph - N/A   Clear
5:35 AM 69.8 °F - 67.6 °F 93% 29.96 in 10.0 mi NNE 4.6 mph - N/A   Clear
5:55 AM 68.0 °F - 67.1 °F 97% 29.97 in 7.0 mi NW 5.8 mph - N/A   Clear
6:15 AM 68.9 °F - 66.7 °F 93% 29.98 in 10.0 mi Calm Calm - N/A   Clear
6:35 AM 68.0 °F - 66.6 °F 95% 29.99 in 10.0 mi NW 3.5 mph - N/A   Clear
6:55 AM 68.0 °F - 66.2 °F 94% 29.99 in 10.0 mi Calm Calm - N/A   Clear
7:15 AM 66.9 °F - 66.0 °F 97% 30.00 in 7.0 mi West 10.4 mph - N/A   Clear
7:35 AM 68.0 °F - 66.2 °F 94% 30.01 in 10.0 mi North 3.5 mph - N/A   Clear
7:55 AM 70.7 °F - 66.4 °F 86% 30.02 in 10.0 mi Calm Calm - N/A   Clear
8:15 AM 70.7 °F - 67.6 °F 90% 30.02 in 10.0 mi Calm Calm - N/A   Clear
8:35 AM 72.1 °F - 68.5 °F 88% 30.02 in 10.0 mi WSW 3.5 mph - N/A Thunderstorm Clear
8:55 AM 72.5 °F - 68.5 °F 87% 30.03 in 10.0 mi NW 3.5 mph - N/A   Clear
9:15 AM 75.2 °F - 68.7 °F 80% 30.03 in 10.0 mi Calm Calm - N/A   Clear
9:35 AM 76.5 °F - 68.7 °F 77% 30.04 in 10.0 mi Calm Calm - N/A   Clear
9:55 AM 77.9 °F - 68.2 °F 72% 30.04 in 10.0 mi Calm Calm - N/A   Clear
10:15 AM 79.0 °F - 67.1 °F 67% 30.05 in 10.0 mi Calm Calm - N/A   Clear
10:35 AM 80.2 °F 82.6 °F 67.3 °F 64% 30.05 in 10.0 mi ENE 3.5 mph - N/A   Clear
10:55 AM 81.5 °F 84.9 °F 69.4 °F 67% 30.05 in 10.0 mi Calm Calm - N/A   Clear
11:15 AM 82.2 °F 85.1 °F 68.0 °F 62% 30.06 in 10.0 mi Calm Calm - N/A   Clear
11:35 AM 82.9 °F 86.3 °F 68.7 °F 62% 30.06 in 10.0 mi Calm Calm - N/A   Clear
11:55 AM 83.3 °F 86.4 °F 68.2 °F 60% 30.07 in 10.0 mi Calm Calm - N/A   Clear
12:15 PM 84.6 °F 87.4 °F 67.3 °F 56% 30.06 in 10.0 mi Calm Calm - N/A   Clear
12:35 PM 84.6 °F 87.6 °F 67.6 °F 57% 30.06 in 10.0 mi SSE 4.6 mph - N/A   Clear
12:55 PM 85.5 °F 88.8 °F 68.2 °F 56% 30.06 in 10.0 mi SSW 5.8 mph - N/A   Clear
1:15 PM 85.1 °F 87.7 °F 66.7 °F 54% 30.06 in 10.0 mi Calm Calm - N/A   Clear
1:35 PM 86.2 °F 89.4 °F 68.0 °F 54% 30.06 in 10.0 mi South 4.6 mph - N/A Thunderstorm Thunderstorm
1:55 PM 74.5 °F - 67.3 °F 78% 30.07 in 2.5 mi NNW 12.7 mph 19.6 mph 0.03 in Rain Heavy Rain
2:15 PM 70.9 °F - 69.3 °F 95% 30.04 in 5.0 mi SSW 12.7 mph 16.1 mph 0.08 in Rain , Thunderstorm Light Thunderstorms and Rain
2:35 PM 72.7 °F - 69.4 °F 90% 30.04 in 10.0 mi Calm Calm - 0.08 in Rain , Thunderstorm Light Thunderstorms and Rain
2:55 PM 74.3 °F - 70.7 °F 88% 30.05 in 10.0 mi Calm Calm - 0.08 in Rain , Thunderstorm Light Thunderstorms and Rain
3:15 PM 77.0 °F - 68.7 °F 75% 30.05 in 10.0 mi SW 6.9 mph - N/A   Clear
3:35 PM 77.7 °F - 67.8 °F 71% 30.05 in 10.0 mi SW 3.5 mph - N/A   Clear
3:55 PM 78.3 °F - 67.6 °F 70% 30.03 in 10.0 mi Calm Calm - N/A   Clear
4:15 PM 81.0 °F 84.2 °F 69.6 °F 68% 30.02 in 10.0 mi Calm Calm - N/A   Clear
4:55 PM 84.0 °F 87.8 °F 69.1 °F 61% 30.01 in 10.0 mi East 4.6 mph - N/A   Clear
5:15 PM 83.3 °F 86.9 °F 69.3 °F 62% 30.01 in 10.0 mi South 5.8 mph - N/A   Clear
5:35 PM 82.9 °F 86.5 °F 69.3 °F 63% 30.01 in 10.0 mi SSW 4.6 mph - N/A   Clear
5:55 PM 81.7 °F 84.5 °F 68.0 °F 63% 30.02 in 10.0 mi WNW 4.6 mph - N/A   Clear
6:15 PM 81.5 °F 85.5 °F 71.1 °F 70% 30.03 in 10.0 mi Calm Calm - N/A   Clear
6:35 PM 80.4 °F 84.5 °F 72.3 °F 76% 30.02 in 10.0 mi Calm Calm - N/A   Clear
6:55 PM 77.2 °F - 73.2 °F 88% 30.02 in 10.0 mi Calm Calm - N/A   Scattered Clouds
7:15 PM 78.1 °F - 72.7 °F 83% 30.02 in 10.0 mi Calm Calm - N/A   Scattered Clouds
7:35 PM 77.4 °F - 74.3 °F 90% 30.02 in 10.0 mi Calm Calm - N/A   Overcast
7:55 PM 75.6 °F - 73.9 °F 95% 30.03 in 10.0 mi Calm Calm - N/A   Scattered Clouds
8:15 PM 76.5 °F - 73.6 °F 91% 30.05 in 10.0 mi Calm Calm - N/A   Clear
8:35 PM 76.8 °F - 73.4 °F 89% 30.06 in 10.0 mi North 3.5 mph - N/A   Clear
8:55 PM 76.3 °F - 73.9 °F 92% 30.07 in 10.0 mi Calm Calm - N/A   Clear
9:15 PM 77.0 °F - 72.9 °F 87% 30.07 in 10.0 mi NW 5.8 mph - N/A   Clear
9:35 PM 75.4 °F - 73.2 °F 93% 30.08 in 10.0 mi Calm Calm - N/A   Clear
9:55 PM 74.7 °F - 72.9 °F 94% 30.09 in 10.0 mi Calm Calm - N/A   Clear
10:15 PM 74.3 °F - 72.5 °F 94% 30.10 in 10.0 mi Calm Calm - N/A   Clear
10:35 PM 74.5 °F - 72.0 °F 92% 30.11 in 10.0 mi Calm Calm - N/A   Clear
10:55 PM 74.7 °F - 70.9 °F 88% 30.11 in 10.0 mi Calm Calm - N/A   Clear
11:15 PM 74.3 °F - 71.1 °F 90% 30.11 in 10.0 mi Calm Calm - N/A   Clear
11:35 PM 75.6 °F - 68.9 °F 80% 30.09 in 10.0 mi ENE 3.5 mph - N/A   Clear
11:55 PM 73.4 °F - 69.4 °F 87% 30.07 in 10.0 mi Calm Calm - N/A   Clear